CZ-6A DEB

Satellite information

Favourite Embed

Satellite Type and Status

DEBRISIN ORBIT

Key statistics

Satellite CZ-6A DEB at a glance.

Uptime

970

Days in orbit

Revolutions

≈ 14.2

Per day

Orbit

SSO

Sun Synchronous Orbit

Inclination

98.8

Latest

Satellite identification and parameters

Extended collection of information and parameters for CZ-6A DEB.

Object identification

Identified? True

Debris? True

Object name: CZ-6A DEB

International designator: 2022-151ZX

Object number (NORAD): 55875

Object ID (CCSDS): 55875

Country: PEOPLES REPUBLIC OF CHINA (PRC)

Current information (Y/N): Y

RCS size: SMALL

Orbital parameters

Period: 101.578 minutes

Inclination: 98.8216 deg

SMA: 7211.507 km

Apoapsis: 863.43 km

Periapsis: 803.313 km

RAAN: 193.1774 deg

Eccentricy: 0.0041681

Argument of periapsis: 222.8738 deg

Mean anomaly: 136.9184 deg

Mean motion: 14.1763278 rev/day

Mean motion (dot): 0.00001906 rev/day2

B* drag term: 0.00095084 1/REarth

Two-line elements (TLE)

Creation date: July 6, 2025, 6:05 p.m.

Reference frame: TEME

Reference center: EARTH

Epoch: July 6, 2025, 10:32 a.m. UTC

TLE line 0: 0 CZ-6A DEB

TLE line 1: 1 55875U 22151ZX 25187.43937298 .00001906 00000-0 95084-3 0 9994

TLE line 2: 2 55875 98.8216 193.1774 0041681 222.8738 136.9184 14.17632780124468

Live tracking on map

Real-time ground track for satellite CZ-6A DEB.

In-orbit conjunctions

A list of the most updated potential collisions computed for object CZ-6A DEB.

Target Orbit TCA Probability of collision Miss distance Type
DELTA 1 DEB SSO 2024-11-14 13:30:03 0.0003611119 740.0 (m) DEBRIS
CZ-6A R/B SSO 2024-09-09 11:12:28 0.0003563368 29.0 (m) ROCKET BODY

Associated space launch

Chinese satellite reported for atmospheric/ocean/environmental/spatial parameter research purposes, details TBD.

CZ-6A DEB was lifted into orbit during the mission ‘Long March 6A | Yunhai 3’, on board a Long March 6A space rocket.

The launch took place on Nov. 11, 2022, 10:52 p.m. from Launch Complex 9A.

For more information about the launch, click the button.

Launch to space Long March 6A | Yunhai 3
Long March 6A | Yunhai 3

Agency: N/A

Status: Launch Successful

Launch date: Nov. 11, 2022, 10:52 p.m. UTC

Rocket: Long March 6A

Launch pad: Launch Complex 9A

Location: Taiyuan Satellite Launch Center, People's Republic of China

...

Latest news about this satellite

There are no fresh news available about this satellite. Check back as we update our databases every day.


Newsletter sign-up

Weekly statistics, charts and insights to help you stay on top of the space industry.